South Beach, OR

9:17 AM PDT on September 30, 2016 (GMT -0700)
Newport Municipal

Weather History for KONP - October, 2010

Change the Weather History Date:

Friday, October 15, 2010

  Actual Average Record
Temperature  
Mean Temperature 51 °F -  
Max Temperature 60 °F 58 °F 78 °F (2002)
Min Temperature 42 °F 46 °F 37 °F (1999)
Degree Days  
Heating Degree Days 14    
Growing Degree Days 1 (Base 50)    
Moisture  
Dew Point 44 °F    
Average Humidity 83    
Maximum Humidity 100    
Minimum Humidity 45    
Precipitation  
Precipitation 0.00 in - - ()
Sea Level Pressure  
Sea Level Pressure 30.31 in    
Wind  
Wind Speed 7 mph (ENE)    
Max Wind Speed 20 mph    
Max Gust Speed 26 mph    
Visibility 9 miles    
Events      
Averages and records for this station are not official NWS values.
T = Trace of Precipitation, MM = Missing Value Source: NWS Daily Summary

Daily Weather History Graph

Daily Weather History Graph

Search for Another Location

Airport or City:

Trip Planner

Search our weather history database for the weather conditions in past years. The results will help you decide how hot, cold, wet, or windy it might be!

Date:

Astronomy

Oct. 15, 2010 Rise Set
Actual Time 7:31 AM PDT 6:31 PM PDT
Civil Twilight 7:02 AM PDT 7:00 PM PDT
Nautical Twilight 6:28 AM PDT 7:34 PM PDT
Astronomical Twilight 5:54 AM PDT 8:08 PM PDT
Moon 3:12 PM PDT (10/15) 12:13 AM PDT (10/15)
Length of Visible Light 11h 58m
Length of Day
11h 00m
First Quarter, 59% of the Moon is Illuminated
Oct 15
First Quarter
Oct 22
Full
Oct 30
Last Quarter
Nov 5
New
Nov 13
First Quarter

Hourly Weather History & Observations

Time (PDT) Temp. Windchill Dew Point Humidity Pressure Visibility Wind Dir Wind Speed Gust Speed Precip Events Conditions
12:11 AM 48.2 °F - 46.4 °F 93% 30.30 in 10.0 mi ENE 4.6 mph - N/A   Clear
12:33 AM 46.4 °F - 44.6 °F 93% 30.30 in 10.0 mi Calm Calm - N/A   Clear
12:51 AM 46.4 °F 44.3 °F 44.6 °F 93% 30.31 in 10.0 mi East 4.6 mph - N/A   Clear
1:11 AM 46.4 °F 45.2 °F 44.6 °F 93% 30.31 in 10.0 mi East 3.5 mph - N/A   Clear
1:31 AM 46.4 °F 44.3 °F 44.6 °F 93% 30.31 in 10.0 mi East 4.6 mph - N/A   Clear
1:51 AM 44.6 °F 42.2 °F 44.6 °F 100% 30.32 in 10.0 mi East 4.6 mph - N/A   Clear
2:11 AM 46.4 °F 44.3 °F 44.6 °F 93% 30.32 in 10.0 mi East 4.6 mph - N/A   Clear
2:31 AM 46.4 °F 44.3 °F 44.6 °F 93% 30.32 in 10.0 mi East 4.6 mph - N/A   Clear
2:51 AM 46.4 °F 44.3 °F 44.6 °F 93% 30.33 in 10.0 mi East 4.6 mph - N/A   Clear
3:11 AM 44.6 °F 41.4 °F 44.6 °F 100% 30.32 in 10.0 mi East 5.8 mph - N/A   Clear
3:31 AM 44.6 °F 41.4 °F 44.6 °F 100% 30.32 in 10.0 mi East 5.8 mph - N/A   Scattered Clouds
3:51 AM 44.6 °F 40.7 °F 44.6 °F 100% 30.32 in 10.0 mi East 6.9 mph - N/A   Clear
4:11 AM 44.6 °F 41.4 °F 44.6 °F 100% 30.32 in 7.0 mi East 5.8 mph - N/A   Clear
4:31 AM 44.6 °F 41.4 °F 42.8 °F 93% 30.32 in 10.0 mi East 5.8 mph - N/A   Clear
4:51 AM 44.6 °F 41.4 °F 42.8 °F 93% 30.32 in 7.0 mi East 5.8 mph - N/A   Clear
5:11 AM 44.6 °F 40.7 °F 42.8 °F 93% 30.33 in 5.0 mi East 6.9 mph - N/A   Clear
5:31 AM 44.6 °F 40.2 °F 42.8 °F 93% 30.33 in 7.0 mi East 8.1 mph - N/A   Clear
5:51 AM 44.6 °F 41.4 °F 42.8 °F 93% 30.33 in 7.0 mi ENE 5.8 mph - N/A   Clear
6:11 AM 42.8 °F 38.6 °F 42.8 °F 100% 30.33 in 7.0 mi East 6.9 mph - N/A   Clear
6:31 AM 42.8 °F 40.1 °F 41.0 °F 93% 30.33 in 5.0 mi East 4.6 mph - N/A   Clear
6:51 AM 42.8 °F 39.3 °F 41.0 °F 93% 30.33 in 7.0 mi East 5.8 mph - N/A   Clear
7:11 AM 42.8 °F 38.6 °F 42.8 °F 100% 30.33 in 5.0 mi East 6.9 mph - N/A   Clear
7:31 AM 42.8 °F 38.6 °F 42.8 °F 100% 30.33 in 5.0 mi East 6.9 mph - N/A   Clear
7:51 AM 42.8 °F 37.5 °F 42.8 °F 100% 30.33 in 10.0 mi East 9.2 mph - N/A   Clear
8:11 AM 42.8 °F 38.6 °F 42.8 °F 100% 30.34 in 7.0 mi East 6.9 mph - N/A   Clear
8:31 AM 44.6 °F 40.7 °F 42.8 °F 93% 30.34 in 7.0 mi East 6.9 mph - N/A   Clear
8:51 AM 44.6 °F 40.2 °F 42.8 °F 93% 30.34 in 5.0 mi East 8.1 mph - N/A   Clear
9:11 AM 46.4 °F 42.9 °F 44.6 °F 93% 30.35 in 7.0 mi East 6.9 mph - N/A   Clear
9:31 AM 48.2 °F - 44.6 °F 87% 30.35 in 10.0 mi ENE 8.1 mph - N/A   Clear
9:51 AM 50.0 °F - 46.4 °F 87% 30.36 in 10.0 mi East 4.6 mph - N/A   Clear
10:11 AM 51.8 °F - 46.4 °F 82% 30.35 in 10.0 mi ENE 6.9 mph - N/A   Clear
10:31 AM 53.6 °F - 46.4 °F 77% 30.35 in 10.0 mi ENE 6.9 mph - N/A   Clear
10:50 AM 53.6 °F - 46.4 °F 77% 30.35 in 10.0 mi ENE 4.6 mph - N/A   Clear
11:10 AM 55.4 °F - 46.4 °F 72% 30.34 in 10.0 mi ENE 6.9 mph - N/A   Clear
11:30 AM 55.4 °F - 46.4 °F 72% 30.34 in 10.0 mi East 5.8 mph - N/A   Clear
11:50 AM 57.2 °F - 44.6 °F 63% 30.33 in 10.0 mi NE 8.1 mph - N/A   Clear
12:10 PM 57.2 °F - 42.8 °F 59% 30.32 in 10.0 mi NE 10.4 mph - N/A   Clear
12:30 PM 59.0 °F - 42.8 °F 55% 30.31 in 10.0 mi ENE 9.2 mph - N/A   Scattered Clouds
12:50 PM 60.8 °F - 42.8 °F 52% 30.30 in 10.0 mi ENE 9.2 mph 16.1 mph N/A   Clear
1:10 PM 60.8 °F - 39.2 °F 45% 30.30 in 10.0 mi NNE 8.1 mph - N/A   Clear
1:30 PM 60.8 °F - 39.2 °F 45% 30.29 in 10.0 mi NE 9.2 mph - N/A   Clear
1:50 PM 59.0 °F - 46.4 °F 63% 30.27 in 10.0 mi North 13.8 mph 17.3 mph N/A   Clear
2:10 PM 59.0 °F - 46.4 °F 63% 30.26 in 10.0 mi North 15.0 mph 24.2 mph N/A   Clear
2:30 PM 57.2 °F - 46.4 °F 67% 30.24 in 10.0 mi North 16.1 mph 24.2 mph N/A   Clear
2:50 PM 57.2 °F - 46.4 °F 67% 30.25 in 10.0 mi North 19.6 mph 26.5 mph N/A   Clear
3:10 PM 57.2 °F - 46.4 °F 67% 30.24 in 10.0 mi North 17.3 mph 25.3 mph N/A   Clear
3:30 PM 57.2 °F - 46.4 °F 67% 30.23 in 10.0 mi North 16.1 mph 24.2 mph N/A   Clear
3:50 PM 57.2 °F - 46.4 °F 67% 30.23 in 10.0 mi North 15.0 mph 21.9 mph N/A   Clear
4:10 PM 57.2 °F - 46.4 °F 67% 30.22 in 10.0 mi North 15.0 mph 21.9 mph N/A   Clear
4:30 PM 55.4 °F - 46.4 °F 72% 30.21 in 10.0 mi North 10.4 mph 25.3 mph N/A   Clear
4:50 PM 55.4 °F - 46.4 °F 72% 30.21 in 10.0 mi North 16.1 mph - N/A   Clear
5:10 PM 55.4 °F - 46.4 °F 72% 30.21 in 10.0 mi North 10.4 mph 20.7 mph N/A   Clear
5:30 PM 55.4 °F - 46.4 °F 72% 30.20 in 10.0 mi North 16.1 mph 21.9 mph N/A   Clear
5:50 PM 55.4 °F - 46.4 °F 72% 30.20 in 10.0 mi North 15.0 mph - N/A   Clear
6:10 PM 53.6 °F - 44.6 °F 72% 30.20 in 10.0 mi North 10.4 mph - N/A   Clear
6:30 PM 53.6 °F - 44.6 °F 72% 30.20 in 10.0 mi NNE 6.9 mph - N/A   Clear
6:50 PM 53.6 °F - 44.6 °F 72% 30.20 in 10.0 mi NNE 8.1 mph - N/A   Clear
7:10 PM 51.8 °F - 44.6 °F 76% 30.20 in 10.0 mi NE 6.9 mph - N/A   Clear
7:30 PM 51.8 °F - 44.6 °F 76% 30.19 in 10.0 mi NNE 8.1 mph - N/A   Clear
7:50 PM 51.8 °F - 44.6 °F 76% 30.19 in 10.0 mi NNE 6.9 mph - N/A   Clear
8:10 PM 48.2 °F - 44.6 °F 87% 30.19 in 10.0 mi Calm Calm - N/A   Clear
8:30 PM 46.4 °F 45.2 °F 44.6 °F 93% 30.19 in 10.0 mi SE 3.5 mph - N/A   Clear
8:50 PM 44.6 °F - 42.8 °F 93% 30.18 in 10.0 mi Calm Calm - N/A   Clear
9:10 PM 44.6 °F - 42.8 °F 93% 30.17 in 10.0 mi Calm Calm - N/A   Clear
9:31 PM 44.6 °F - 44.6 °F 100% 30.18 in 10.0 mi Calm Calm - N/A   Clear
9:51 PM 44.6 °F 43.1 °F 42.8 °F 93% 30.18 in 10.0 mi East 3.5 mph - N/A   Clear
10:10 PM 44.6 °F 43.1 °F 42.8 °F 93% 30.17 in 10.0 mi East 3.5 mph - N/A   Clear
10:30 PM 44.6 °F - 42.8 °F 93% 30.17 in 10.0 mi Calm Calm - N/A   Clear
10:50 PM 44.6 °F 43.1 °F 42.8 °F 93% 30.16 in 10.0 mi NE 3.5 mph - N/A   Clear
11:11 PM 44.6 °F - 42.8 °F 93% 30.16 in 10.0 mi Calm Calm - N/A   Clear
11:30 PM 42.8 °F 41.1 °F 41.0 °F 93% 30.15 in 10.0 mi NNE 3.5 mph - N/A   Clear
11:51 PM 44.6 °F - 42.8 °F 93% 30.15 in 10.0 mi Calm Calm - N/A   Clear